Temp
15 15 17 17 16 16 16 16 17 16 15 14 15 15 15 13 13 12 12 12 11 11 10 10 10 10 10 10 10 10 9 9 9 9 9 8 8 8 8 8 8 8 8 9
15 15 17 16 15 16 16 17 17 16 15 15 15 15 15 14 14 13 12 12 12 11 11 10 10 10 10 10 10 10 10 9 9 9 9 8 8 8 9 8 8 8 9 9
15 16 16 16 16 16 17 17 17 16 15 15 15 17 16 17 16 15 14 13 12 12 12 11 11 11 11 11 11 11 10 10 9 9 9 9 10 10 10 10 9 9 9 9
15 16 15 16 16 16 17 16 16 16 16 18 16 19 17 16 17 16 16 15 13 13 13 12 11 11 11 12 11 10 10 10 10 10 11 11 11 11 11 10 10 9 9 9
15 15 15 16 16 16 17 16 16 16 16 17 17 18 18 18 16 16 16 14 13 13 12 13 12 12 12 11 11 11 11 11 11 11 11 11 11 10 11 11 11 9 9 9
15 15 16 16 16 15 15 16 16 16 17 19 18 18 20 19 17 16 15 15 14 14 14 14 13 13 12 12 12 12 12 12 12 12 12 11 11 11 10 11 10 9 8 8
15 15 15 15 16 15 15 17 18 18 19 20 17 18 19 18 17 16 15 16 16 16 15 14 14 13 13 13 13 12 12 12 12 12 12 11 11 11 12 12 11 10 10 9
16 16 15 15 16 17 16 17 19 17 18 20 18 19 19 18 18 17 16 16 16 16 15 15 14 14 13 13 13 13 12 12 12 12 12 11 11 12 12 11 10 10 10 10
16 16 16 16 16 16 17 16 17 18 19 19 20 19 19 18 17 17 16 16 16 16 16 15 15 14 14 14 13 13 13 13 13 12 12 12 12 12 12 11 10 10 10 10
15 16 16 15 15 15 16 16 17 18 19 19 20 19 19 18 18 17 16 16 16 16 15 15 15 14 14 14 13 13 13 13 13 13 12 12 12 12 12 11 11 10 9 9
15 15 17 16 15 16 16 16 17 18 18 20 20 20 19 18 18 17 16 16 16 16 15 15 15 14 14 14 14 13 13 13 13 13 13 12 12 12 11 10 10 10 9 9
14 15 16 15 16 16 17 17 17 18 19 18 18 19 19 18 18 18 17 17 16 16 15 15 15 14 14 14 13 13 13 13 13 13 12 12 11 11 10 10 10 9 9 9
14 15 16 16 16 15 16 17 17 18 18 18 19 19 19 18 18 18 18 17 16 16 15 15 15 15 14 14 14 14 13 13 12 12 12 11 11 10 10 9 9 9 8 8
14 15 16 17 17 17 16 16 17 17 18 18 19 19 18 18 18 18 18 18 17 16 15 15 15 14 14 14 14 13 13 13 12 11 11 10 10 9 9 9 9 9 8 8
14 15 16 16 17 17 17 17 17 17 17 18 19 19 18 18 18 18 18 18 18 17 16 15 14 14 14 13 13 13 13 12 11 11 10 10 10 9 9 9 8 8 8 7
14 16 16 16 16 16 17 17 17 17 17 17 17 18 18 18 18 18 18 18 18 17 16 15 15 14 14 13 13 13 13 12 11 11 10 10 9 9 8 8 8 7 7 7
14 15 15 16 16 16 16 17 17 17 17 17 17 18 18 18 17 17 18 18 18 17 16 16 15 14 14 13 13 13 12 12 11 10 10 10 9 8 8 8 7 7 7 7
14 14 15 17 16 17 17 17 17 17 17 17 17 17 17 17 17 18 18 18 18 17 17 16 15 14 14 13 13 13 12 12 11 10 10 9 9 8 8 7 7 7 7 7
14 15 15 16 17 17 17 16 16 16 17 17 16 16 16 16 17 18 18 18 17 17 16 15 14 14 13 13 13 12 12 11 11 10 10 9 8 8 8 8 7 7 7 7
14 14 15 16 17 18 17 16 16 16 17 17 16 16 16 16 16 17 18 18 17 17 16 16 15 14 13 13 12 12 11 11 11 10 10 9 8 8 8 7 7 7 7 7
14 14 15 16 16 17 15 16 16 16 16 16 16 16 16 16 15 16 17 17 17 16 16 16 15 13 13 13 12 12 11 11 10 10 9 8 8 8 7 7 7 7 7 7
14 14 15 14 15 16 15 15 15 16 16 16 16 16 16 16 16 16 15 16 16 16 16 15 14 13 12 11 12 11 11 10 9 9 9 8 8 8 7 7 7 7 7 7
12 13 14 14 15 13 14 13 13 14 15 15 15 16 16 16 16 16 16 16 15 15 15 14 13 12 11 11 11 11 10 9 9 9 8 8 8 7 7 7 7 6 7 6
11 12 12 12 13 13 13 13 13 13 13 14 15 15 16 16 16 16 16 15 14 14 13 13 12 11 11 11 10 10 9 8 8 8 8 8 7 7 7 7 6 6 6 5
11 10 11 11 12 12 12 12 13 13 13 13 13 14 15 15 15 15 15 14 14 13 13 12 11 11 11 10 10 9 9 9 8 7 8 7 7 7 7 6 6 5 5 4
9 9 10 11 11 11 11 12 12 12 12 13 13 12 13 13 13 14 14 14 13 13 12 12 11 10 9 8 8 9 9 9 9 7 7 7 7 7 6 6 6 5 5 4
Height
3181 3183 3181 3180 3182 3182 3182 3180 3178 3178 3177 3175 3174 3174 3174 3172 3172 3175 3175 3176 3176 3177 3178 3180 3181 3182 3184 3186 3188 3190 3191 3192 3193 3193 3193 3191 3191 3191 3189 3186 3185 3183 3180 3179
3180 3179 3180 3181 3182 3182 3180 3179 3177 3178 3176 3175 3173 3171 3171 3170 3170 3172 3173 3175 3177 3179 3179 3178 3179 3181 3183 3185 3187 3188 3190 3191 3191 3190 3190 3189 3189 3188 3187 3185 3183 3179 3176 3177
3174 3176 3178 3180 3180 3180 3177 3177 3177 3179 3176 3173 3171 3167 3168 3167 3168 3169 3170 3173 3175 3177 3179 3179 3179 3181 3183 3185 3186 3188 3189 3189 3188 3188 3188 3187 3186 3186 3185 3182 3179 3177 3176 3175
3172 3174 3176 3178 3179 3180 3176 3177 3178 3177 3176 3170 3171 3165 3165 3166 3166 3166 3168 3169 3172 3175 3176 3178 3180 3181 3182 3185 3186 3187 3186 3186 3186 3185 3185 3185 3184 3182 3180 3178 3174 3172 3172 3173
3167 3170 3173 3174 3176 3177 3177 3177 3177 3176 3174 3171 3169 3167 3164 3165 3166 3165 3165 3167 3170 3172 3174 3175 3177 3180 3182 3183 3184 3184 3184 3184 3183 3184 3183 3183 3183 3180 3177 3173 3169 3166 3165 3168
3164 3167 3170 3171 3174 3176 3176 3177 3175 3173 3171 3164 3168 3169 3158 3163 3165 3164 3164 3165 3165 3167 3168 3171 3174 3176 3178 3180 3180 3180 3182 3181 3182 3182 3182 3182 3181 3178 3174 3168 3163 3157 3156 3161
3161 3162 3166 3169 3171 3173 3175 3174 3168 3168 3164 3159 3167 3167 3162 3164 3163 3162 3161 3161 3162 3163 3165 3167 3170 3173 3174 3176 3177 3178 3180 3179 3180 3181 3181 3180 3178 3173 3168 3166 3162 3153 3153 3160
3156 3158 3160 3163 3166 3170 3171 3171 3166 3168 3163 3159 3164 3162 3159 3163 3160 3159 3159 3160 3160 3161 3162 3164 3167 3169 3170 3172 3175 3176 3177 3178 3179 3179 3179 3177 3173 3170 3167 3166 3164 3159 3159 3160
3153 3154 3156 3160 3164 3167 3168 3170 3168 3163 3162 3163 3157 3161 3161 3161 3160 3159 3158 3157 3157 3158 3159 3162 3164 3166 3168 3170 3173 3174 3174 3175 3176 3176 3175 3172 3171 3168 3167 3165 3165 3163 3162 3161
3152 3153 3154 3158 3161 3163 3163 3165 3166 3164 3161 3158 3153 3158 3158 3160 3160 3158 3157 3156 3156 3157 3159 3160 3162 3163 3165 3167 3170 3171 3170 3171 3173 3173 3172 3170 3168 3166 3165 3164 3163 3162 3160 3159
3150 3151 3150 3154 3153 3156 3162 3163 3163 3160 3161 3157 3154 3151 3154 3158 3158 3157 3156 3155 3156 3156 3157 3158 3159 3160 3161 3163 3167 3169 3168 3169 3170 3170 3169 3169 3167 3165 3164 3163 3162 3161 3160 3159
3145 3147 3146 3147 3150 3153 3155 3157 3158 3159 3158 3158 3160 3157 3154 3155 3154 3154 3154 3154 3154 3155 3155 3156 3157 3158 3160 3162 3164 3165 3166 3168 3168 3168 3168 3166 3165 3165 3163 3163 3162 3161 3159 3158
3142 3142 3142 3145 3148 3149 3150 3153 3154 3154 3154 3155 3155 3151 3151 3152 3151 3151 3150 3151 3152 3152 3153 3154 3155 3156 3157 3159 3161 3162 3164 3165 3165 3165 3165 3165 3165 3165 3164 3162 3161 3159 3158 3156
3138 3138 3138 3137 3140 3144 3148 3149 3151 3152 3151 3150 3149 3150 3151 3151 3150 3149 3148 3147 3148 3148 3150 3151 3153 3154 3155 3157 3158 3159 3161 3162 3162 3162 3164 3165 3165 3164 3163 3162 3160 3158 3156 3154
3134 3135 3136 3137 3137 3138 3140 3144 3146 3147 3148 3147 3146 3146 3148 3149 3148 3147 3145 3144 3143 3145 3146 3147 3149 3151 3152 3154 3155 3156 3158 3158 3159 3160 3161 3162 3162 3160 3160 3159 3157 3156 3154 3150
3130 3132 3132 3133 3134 3136 3137 3138 3139 3142 3145 3145 3146 3145 3146 3145 3144 3143 3141 3140 3140 3142 3142 3144 3145 3147 3149 3150 3152 3154 3155 3156 3156 3157 3159 3159 3159 3157 3156 3155 3153 3151 3148 3145
3127 3128 3130 3129 3131 3134 3134 3134 3137 3139 3141 3143 3141 3142 3142 3141 3142 3138 3137 3136 3136 3138 3139 3141 3143 3144 3146 3147 3149 3151 3152 3153 3154 3155 3156 3155 3154 3152 3151 3150 3148 3146 3144 3140
3125 3126 3127 3125 3129 3129 3126 3128 3132 3135 3137 3137 3135 3136 3137 3136 3135 3134 3133 3132 3132 3133 3134 3136 3138 3140 3142 3144 3146 3147 3148 3149 3151 3152 3152 3151 3150 3150 3149 3147 3145 3142 3139 3135
3123 3124 3124 3124 3123 3122 3124 3126 3130 3132 3132 3131 3130 3130 3132 3130 3130 3130 3128 3126 3127 3128 3130 3132 3134 3136 3138 3140 3142 3144 3146 3147 3149 3149 3149 3148 3147 3146 3145 3142 3139 3136 3132 3129
3121 3121 3122 3120 3119 3116 3120 3122 3125 3127 3128 3126 3126 3126 3125 3126 3127 3126 3123 3121 3122 3123 3125 3127 3128 3130 3133 3136 3138 3140 3142 3144 3145 3146 3146 3145 3144 3143 3139 3136 3133 3130 3127 3124
3117 3118 3118 3116 3117 3116 3116 3119 3122 3125 3126 3122 3122 3122 3121 3122 3123 3121 3119 3118 3119 3120 3122 3123 3125 3127 3130 3132 3135 3137 3139 3140 3141 3141 3141 3140 3138 3136 3134 3131 3129 3124 3121 3120
3115 3115 3113 3116 3115 3116 3115 3118 3121 3119 3117 3119 3119 3118 3118 3118 3116 3115 3115 3115 3116 3117 3118 3121 3122 3123 3126 3128 3130 3133 3135 3137 3137 3137 3136 3135 3134 3131 3130 3127 3122 3118 3115 3112
3115 3113 3113 3113 3113 3112 3113 3114 3114 3114 3114 3114 3115 3115 3114 3114 3113 3112 3112 3111 3112 3114 3116 3117 3118 3120 3121 3123 3126 3128 3131 3133 3134 3134 3133 3131 3130 3128 3125 3120 3115 3111 3109 3105
3106 3107 3109 3111 3113 3112 3111 3110 3109 3109 3109 3109 3109 3109 3110 3109 3109 3108 3108 3108 3109 3109 3112 3113 3114 3115 3116 3118 3120 3123 3125 3127 3131 3131 3129 3127 3126 3123 3118 3114 3110 3106 3103 3100
3101 3103 3103 3105 3107 3107 3105 3104 3104 3103 3103 3103 3104 3104 3104 3104 3104 3104 3104 3104 3104 3106 3107 3108 3111 3114 3116 3116 3116 3119 3119 3122 3125 3126 3124 3122 3120 3116 3113 3108 3104 3100 3099 3097
3097 3100 3100 3102 3099 3100 3099 3100 3100 3099 3098 3098 3098 3098 3098 3099 3098 3098 3098 3098 3100 3101 3102 3104 3107 3112 3113 3110 3108 3114 3116 3117 3118 3119 3118 3117 3114 3110 3107 3102 3098 3097 3095 3093
Wind_Speed
15 14 13 7 3 6 7 6 5 4 4 3 8 9 9 8 11 12 11 10 9 11 16 18 18 18 21 19 17 13 11 8 5 3 1 3 7 9 10 11 15 14 14 13
20 22 13 9 7 7 7 3 4 2 6 4 8 11 10 11 8 11 13 13 12 11 13 13 17 18 19 18 16 15 13 8 5 6 8 8 9 10 14 16 18 19 12 14
27 20 16 13 10 9 8 8 5 7 8 8 10 9 3 2 9 12 13 14 16 14 13 13 12 12 14 16 15 14 13 11 9 8 9 9 9 11 14 19 22 24 22 16
26 22 18 16 15 9 14 4 6 6 8 7 7 7 2 5 5 7 11 15 17 16 15 16 15 14 13 13 15 15 15 13 11 10 8 8 10 14 20 23 19 23 24 22
27 24 24 21 16 9 10 6 4 7 8 9 3 8 2 4 5 7 9 13 17 17 18 15 17 16 14 17 17 18 15 14 14 11 10 11 14 16 22 25 35 33 26 20
27 22 24 24 16 13 9 7 8 7 7 12 5 6 1 5 5 3 3 8 11 18 19 19 18 19 20 20 22 20 16 16 13 12 12 12 15 23 24 25 30 38 24 16
20 26 24 21 22 14 13 12 12 7 7 3 5 8 4 6 8 3 5 4 4 10 17 21 21 20 21 21 20 18 18 18 15 13 11 13 12 12 14 21 21 16 15 18
20 22 25 22 28 20 18 17 15 5 4 7 3 4 3 9 11 5 3 2 5 10 13 20 23 23 24 23 21 19 19 18 17 16 13 12 15 13 14 14 7 8 9 6
18 23 16 21 20 22 17 17 14 12 10 11 6 5 9 5 9 9 3 4 5 8 14 19 20 22 23 23 19 16 18 20 19 17 13 14 10 10 13 9 7 9 9 11
13 12 21 22 19 20 17 5 12 17 8 9 3 6 10 6 10 9 3 5 5 9 10 10 16 19 20 22 20 13 13 15 14 11 10 12 11 12 11 9 7 9 10 10
19 14 11 22 30 28 22 19 15 9 6 9 9 3 1 8 10 12 3 6 7 2 9 7 8 13 16 20 18 9 7 7 5 7 12 11 9 9 8 6 5 5 6 7
23 16 15 20 21 27 24 25 21 19 12 12 11 18 11 10 15 12 8 6 9 6 7 6 8 10 13 16 16 9 3 4 7 7 8 6 5 6 7 7 5 5 7 10
21 18 18 14 22 21 26 24 19 19 17 13 14 14 7 14 8 9 12 9 7 8 8 7 7 8 12 12 11 8 6 7 4 3 2 2 2 3 4 5 7 9 10 11
23 20 23 20 23 25 27 25 23 23 22 18 16 16 11 8 8 8 12 13 11 11 11 9 8 10 12 12 10 8 5 3 1 3 4 3 4 5 7 9 11 12 14 15
19 23 17 17 17 15 27 28 27 24 22 23 17 16 13 14 13 14 14 15 17 11 11 11 9 10 11 11 10 7 4 1 2 3 2 3 5 6 7 8 11 14 18 20
20 16 18 18 16 15 17 22 26 24 25 20 20 22 18 15 16 19 21 17 20 13 14 14 12 10 10 12 10 7 4 2 1 1 3 6 7 7 7 7 12 16 21 22
19 18 14 18 15 14 20 21 20 19 19 19 24 23 19 17 15 21 22 18 17 14 16 14 15 12 12 12 12 7 5 4 4 7 8 9 9 8 7 10 14 19 23 24
8 17 15 11 10 13 15 17 18 14 15 20 25 26 23 21 20 19 22 21 19 15 17 15 17 17 15 17 14 11 8 6 10 11 11 11 10 10 11 12 17 22 26 24
9 9 9 11 17 11 10 14 14 12 13 13 16 18 20 22 19 18 25 24 18 15 14 15 17 18 16 19 16 13 13 12 14 13 12 11 11 9 12 16 20 25 26 23
12 12 11 9 14 12 17 17 15 12 16 12 7 12 22 20 19 18 20 23 18 20 17 18 20 20 19 22 20 17 15 14 13 12 12 12 10 11 14 19 23 26 23 22
11 10 16 16 15 14 7 11 14 12 11 11 13 14 10 21 22 24 17 13 19 19 17 17 20 20 20 23 23 19 15 13 11 11 11 10 10 13 18 23 26 25 23 23
11 11 12 9 10 15 12 14 14 14 12 12 12 15 12 11 17 21 15 13 20 20 20 20 21 23 22 23 22 18 13 10 9 10 10 10 12 17 22 26 27 23 23 22
18 16 17 10 8 7 7 7 14 17 21 21 18 18 20 20 16 13 14 18 23 22 21 25 25 23 23 22 18 14 10 9 9 12 9 11 15 21 25 27 23 22 23 22
17 21 18 18 17 16 18 21 17 14 15 18 20 21 20 22 20 19 17 19 27 25 24 27 25 24 25 21 17 13 10 7 12 12 10 14 19 24 27 25 22 22 23 21
16 17 20 24 23 19 16 22 26 25 23 22 21 20 21 22 23 23 20 22 26 25 26 27 24 23 22 21 18 17 12 12 14 18 14 17 22 27 27 22 20 20 20 19
17 16 17 16 16 19 22 22 25 27 27 28 27 25 22 22 22 23 20 25 21 23 24 25 25 24 22 20 21 17 16 17 16 18 16 19 25 26 24 21 20 21 22 21
Wind_Direction
218 220 229 240 286 325 333 339 347 329 323 264 267 268 250 226 205 203 192 183 175 186 201 198 195 201 187 186 183 183 185 174 151 290 316 272 271 283 286 291 287 294 304 321
219 220 226 234 279 320 333 336 22 358 338 311 292 293 262 230 215 202 202 197 190 189 186 188 202 204 204 197 193 189 181 190 198 220 260 274 294 296 291 290 286 291 310 295
221 223 227 240 255 287 293 299 323 329 312 282 314 276 264 234 219 226 214 200 198 196 196 198 195 200 203 204 200 186 181 188 212 241 251 265 282 317 331 312 299 296 293 289
224 221 225 235 246 272 293 316 282 299 315 338 322 321 253 235 237 243 221 212 213 205 201 200 205 194 193 181 183 186 193 198 221 236 264 295 325 314 313 314 303 282 280 281
221 219 225 231 230 256 298 306 272 293 290 291 159 279 106 298 260 285 258 228 221 210 212 199 197 202 192 194 195 194 195 211 228 245 277 300 313 297 303 297 286 312 261 265
225 232 226 229 229 246 268 281 272 281 269 250 54 323 184 13 350 303 177 231 223 210 206 200 201 191 190 196 200 204 213 223 238 259 284 300 307 308 304 308 299 301 243 235
220 226 225 223 225 237 248 257 265 248 224 57 10 300 338 347 331 328 261 229 202 199 205 205 206 205 202 207 212 220 221 230 244 261 281 303 289 322 327 318 336 350 210 243
208 214 214 220 222 225 233 249 269 243 311 346 288 263 34 346 7 8 255 214 203 215 214 199 204 208 215 217 222 229 236 242 249 268 284 299 287 301 315 308 311 54 179 255
215 224 215 212 211 214 224 238 250 288 256 259 292 288 296 19 3 360 304 269 233 185 188 200 205 215 221 222 225 234 250 252 253 262 287 303 299 309 311 317 276 268 272 284
227 232 218 214 204 215 218 247 227 224 268 271 290 271 253 313 345 352 303 239 202 192 190 208 215 218 223 224 223 236 271 237 234 268 301 319 320 322 326 315 286 260 266 280
213 225 214 210 215 212 214 230 241 288 279 302 285 280 265 307 320 329 277 246 192 186 218 222 226 221 218 211 214 245 194 192 235 295 314 317 317 319 317 306 299 283 277 290
206 221 226 224 218 216 229 223 226 226 230 244 294 283 290 294 318 323 312 292 231 249 211 208 196 197 201 210 218 218 204 269 288 303 313 313 317 311 320 330 322 309 310 313
203 217 223 224 202 215 220 221 231 239 254 272 281 286 321 316 307 292 309 307 253 243 235 210 200 204 193 195 207 220 238 271 281 321 19 35 9 6 2 357 343 337 331 327
212 219 222 223 225 220 218 223 227 234 243 248 243 281 292 307 310 296 297 297 281 245 238 228 211 210 203 205 209 213 238 269 343 75 68 64 55 45 24 12 6 353 337 328
201 220 227 233 234 232 220 224 225 231 245 261 272 283 285 293 297 301 303 266 272 261 250 245 229 215 213 209 205 208 207 210 108 99 52 2 349 341 342 343 349 342 333 327
200 228 228 231 227 221 228 231 234 231 247 256 259 268 276 288 295 293 287 272 255 251 248 252 243 228 219 211 207 197 190 176 146 299 272 287 294 292 307 331 341 339 332 324
211 210 218 230 217 227 230 226 221 228 236 253 256 261 268 272 285 291 293 273 264 253 242 245 244 237 222 216 198 191 194 218 243 245 263 285 291 291 301 316 331 332 329 322
188 206 224 236 196 219 234 208 215 230 258 274 262 256 255 269 269 280 295 274 258 240 237 238 233 231 222 205 193 203 218 234 244 255 275 287 298 281 283 312 326 327 327 321
189 200 202 217 219 230 212 210 215 235 271 291 274 262 253 259 264 272 282 277 253 224 226 233 230 233 228 209 208 219 224 233 252 264 273 291 289 278 303 323 324 326 324 318
217 221 231 203 261 228 237 209 227 243 266 264 292 286 265 271 275 269 268 276 229 227 220 222 227 232 225 215 219 226 233 244 258 265 283 294 284 296 317 324 324 323 323 320
215 226 234 231 241 249 238 250 238 232 266 293 274 286 293 257 267 267 258 242 236 235 228 222 227 234 232 226 226 234 243 245 257 278 291 292 297 314 320 322 321 324 322 316
229 244 235 237 253 249 254 249 233 249 259 260 269 284 292 300 274 274 242 223 228 230 225 223 225 227 226 225 228 234 236 240 257 283 291 293 308 320 319 317 319 322 319 318
241 239 263 254 268 266 279 244 252 255 254 250 256 266 287 294 299 294 266 228 221 224 225 218 220 224 225 218 216 212 219 241 276 290 287 304 314 314 312 316 319 320 320 327
255 256 243 250 258 257 270 277 268 273 270 268 257 255 260 277 286 287 276 243 225 221 217 223 223 221 216 208 207 209 220 245 298 286 290 303 307 312 315 315 317 323 328 328
242 246 245 250 251 254 262 251 257 269 272 274 273 266 257 260 272 275 267 241 227 234 226 227 223 223 215 216 209 208 215 259 279 279 287 298 309 314 310 310 319 324 321 315
253 250 248 249 256 244 250 258 261 261 265 267 271 275 280 280 275 272 274 240 238 234 231 229 222 228 220 220 214 210 277 288 267 265 283 298 307 308 305 315 322 320 317 318